Regional Weather Roundup
Issued by NWS

Home | Current Version | Previous Version | Text Only | Print | Product List | Glossary Off
Versions: 1 2 3 4 5 6 7 8 9 10 11 12 13 14 15 16 17 18 19 20 21 22 23 24 25 26 27 28 29 30 31 32 33 34 35 36 37 38 39 40 41 42 43 44 45 46 47 48 49 50

000
ASUS43 KFSD 022110
RWRSD

WEATHER ROUNDUP FOR SOUTH DAKOTA
NATIONAL WEATHER SERVICE SIOUX FALLS SD
400 PM CDT SUN AUG 02 2015

NOTE: "FAIR" INDICATES FEW OR NO CLOUDS BELOW 12,000 FEET WITH NO
SIGNIFICANT WEATHER AND/OR OBSTRUCTIONS TO VISIBILITY.


SDZ001>005-009-010-012>017-022200-
NORTHWEST AND NORTH CENTRAL SOUTH DAKOTA

CITY           SKY/WX    TMP DP  RH WIND       PRES   REMARKS
BUFFALO          N/A     84  45  25 NE8       29.95F
FAITH            N/A     85  46  25 NE10      29.97F
MOBRIDGE       SUNNY     84  55  36 N14G21    29.91R
$$

SDZ012>016-024>037-041>051-057-063-072>074-022200-
SOUTHWEST AND SOUTH CENTRAL SOUTH DAKOTA

CITY           SKY/WX    TMP DP  RH WIND       PRES   REMARKS
RAPID CTY ARPT SUNNY     85  53  33 NE7       30.00F
PIERRE         SUNNY     88  51  28 N12G18    29.90S
CUSTER         MOSUNNY   75  49  39 E10       30.14S
ELLSWORTH AFB  SUNNY     84  50  30 SE6       30.00F
PHILIP         SUNNY     88  53  30 VRB5      29.93F
PINE RIDGE     MOSUNNY   89  55  31 E14G20    29.98S
SPEARFISH      FAIR      81  52  36 E13       30.05F
WINNER         FAIR      90  58  33 NE10G18   29.91F
$$

SDZ004>011-016>023-039-040-022200-
NORTHEAST SOUTH DAKOTA

CITY           SKY/WX    TMP DP  RH WIND       PRES   REMARKS
ABERDEEN       SUNNY     82  56  40 N15       29.88R
WATERTOWN      SUNNY     79  58  48 N17G24    29.86F
BROOKINGS      SUNNY     81  57  44 N18       29.87R
SISSETON         N/A     78  57  48 N15       29.84S
$$

SDZ017-020-022-023-036>040-048>070-022200-
SOUTHEAST SOUTH DAKOTA

CITY           SKY/WX    TMP DP  RH WIND       PRES   REMARKS
SIOUX FALLS    SUNNY     85  62  46 N10       29.84S
HURON          SUNNY     84  60  44 N10       29.86S
CHAMBERLAIN    SUNNY     84  60  43 NE7       29.90S
MITCHELL       SUNNY     84  60  44 NE13G22   29.87S
YANKTON        SUNNY     86  66  51 N9        29.83S
$$

ABBREVIATIONS USED IN REMARKS
   TC - TEMPERATURE IN CELSIUS
  WCI - WIND CHILL INDEX
   HX - HEAT INDEX
  VSB - VISIBILITY



USA.gov is the U.S. government's official web portal to all federal, state and local government web resources and services.